When you browse on this site, cookies collect data to enhance your experience and personalize the content and advertising you see.
Visit our Privacy Policy to learn more. By continuing to use the site, you agree to this use of cookies and data.
  • In Lithuania
  • List of Countries
  • For 7 days
  • Water Temperature
  • Weather Map
  • Weather Widgets
  • user-avatar
    Login

    Hourly Weather Kalat

    Today, 4 June, Thursday

    Time Temperature Precipitation Wind Pressure Humidity
    00:00 +3°C° 0 mm 2 mps 476 mmHg 82%
    01:00 +2°C° 0 mm 2 mps 475 mmHg 83%
    02:00 +3°C° 0 mm 1 mps 475 mmHg 84%
    03:00 +3°C° 0 mm 1 mps 475 mmHg 83%
    04:00 +2°C° 0 mm 2 mps 475 mmHg 83%
    05:00 +2°C° 0 mm 2 mps 475 mmHg 83%
    06:00 +2°C° 0 mm 2 mps 475 mmHg 80%
    07:00 +4°C° 0 mm 1 mps 476 mmHg 77%
    08:00 +4°C° 0 mm 1 mps 476 mmHg 74%
    09:00 +5°C° 0.1 mm 1 mps 477 mmHg 74%
    10:00 +5°C° 0.1 mm 2 mps 477 mmHg 73%
    11:00 +6°C° 0.1 mm 2 mps 478 mmHg 73%
    12:00 +7°C° 0.5 mm 2 mps 478 mmHg 71%
    13:00 +7°C° 0.5 mm 2 mps 478 mmHg 69%
    14:00 +8°C° 0.5 mm 3 mps 478 mmHg 68%
    15:00 +8°C° 0.6 mm 3 mps 478 mmHg 67%
    16:00 +8°C° 0.6 mm 3 mps 478 mmHg 67%
    17:00 +8°C° 0.6 mm 3 mps 478 mmHg 66%
    18:00 +7°C° 0.2 mm 3 mps 477 mmHg 68%
    19:00 +5°C° 0.2 mm 3 mps 477 mmHg 70%
    20:00 +4°C° 0.2 mm 3 mps 477 mmHg 72%
    21:00 +4°C° 0 mm 3 mps 477 mmHg 75%
    22:00 +3°C° 0 mm 3 mps 476 mmHg 77%
    23:00 +3°C° 0 mm 3 mps 476 mmHg 80%

    Tomorrow, 5 June, Friday

    Time Temperature Precipitation Wind Pressure Humidity
    00:00 +3°C° 0 mm 3 mps 476 mmHg 81%
    01:00 +3°C° 0 mm 2 mps 475 mmHg 82%
    02:00 +3°C° 0 mm 2 mps 475 mmHg 84%
    03:00 +3°C° 0 mm 2 mps 475 mmHg 84%
    04:00 +3°C° 0 mm 2 mps 475 mmHg 84%
    05:00 +2°C° 0 mm 2 mps 475 mmHg 85%
    06:00 +3°C° 0 mm 2 mps 475 mmHg 81%
    07:00 +4°C° 0 mm 2 mps 476 mmHg 77%
    08:00 +5°C° 0 mm 2 mps 477 mmHg 73%
    09:00 +6°C° 0 mm 2 mps 477 mmHg 69%
    10:00 +7°C° 0 mm 3 mps 478 mmHg 65%
    11:00 +8°C° 0 mm 3 mps 479 mmHg 61%
    12:00 +8°C° 0.2 mm 3 mps 479 mmHg 57%
    13:00 +9°C° 0.2 mm 3 mps 479 mmHg 53%
    14:00 +10°C° 0.2 mm 4 mps 480 mmHg 49%
    15:00 +10°C° 0.1 mm 4 mps 479 mmHg 47%
    16:00 +10°C° 0.1 mm 4 mps 479 mmHg 46%
    17:00 +8°C° 0.1 mm 4 mps 479 mmHg 45%
    18:00 +7°C° 0 mm 4 mps 478 mmHg 48%
    19:00 +6°C° 0 mm 4 mps 478 mmHg 51%
    20:00 +5°C° 0 mm 3 mps 477 mmHg 55%
    21:00 +5°C° 0 mm 3 mps 477 mmHg 59%
    22:00 +4°C° 0 mm 3 mps 477 mmHg 63%
    23:00 +4°C° 0 mm 3 mps 477 mmHg 66%

    Day after tomorrow, 6 June, Saturday

    Time Temperature Precipitation Wind Pressure Humidity
    00:00 +3°C° 0 mm 3 mps 476 mmHg 69%
    01:00 +3°C° 0 mm 3 mps 476 mmHg 71%
    02:00 +3°C° 0 mm 2 mps 476 mmHg 73%
    03:00 +3°C° 0 mm 2 mps 476 mmHg 74%
    04:00 +3°C° 0 mm 2 mps 475 mmHg 75%
    05:00 +3°C° 0 mm 2 mps 475 mmHg 75%
    06:00 +4°C° 0 mm 2 mps 476 mmHg 68%
    07:00 +5°C° 0 mm 2 mps 477 mmHg 61%
    08:00 +5°C° 0 mm 3 mps 478 mmHg 54%
    09:00 +7°C° 0 mm 3 mps 479 mmHg 49%
    10:00 +8°C° 0 mm 3 mps 479 mmHg 45%
    11:00 +8°C° 0 mm 4 mps 480 mmHg 40%
    12:00 +8°C° 0.1 mm 4 mps 480 mmHg 41%
    13:00 +10°C° 0.1 mm 4 mps 480 mmHg 43%
    14:00 +10°C° 0.1 mm 4 mps 480 mmHg 44%
    15:00 +10°C° 0.2 mm 4 mps 480 mmHg 45%
    16:00 +10°C° 0.2 mm 4 mps 479 mmHg 46%
    17:00 +10°C° 0.2 mm 4 mps 479 mmHg 46%
    18:00 +8°C° 0.1 mm 4 mps 479 mmHg 50%
    19:00 +7°C° 0.1 mm 4 mps 478 mmHg 53%
    20:00 +6°C° 0.1 mm 4 mps 478 mmHg 57%
    21:00 +5°C° 0 mm 3 mps 478 mmHg 60%
    22:00 +5°C° 0 mm 3 mps 477 mmHg 63%
    23:00 +4°C° 0 mm 3 mps 477 mmHg 66%

    7 June, Sunday

    Time Temperature Precipitation Wind Pressure Humidity
    00:00 +3°C° 0 mm 3 mps 477 mmHg 67%
    01:00 +4°C° 0 mm 2 mps 476 mmHg 68%
    02:00 +3°C° 0 mm 2 mps 476 mmHg 69%
    03:00 +3°C° 0 mm 2 mps 476 mmHg 67%
    04:00 +3°C° 0 mm 2 mps 475 mmHg 65%
    05:00 +3°C° 0 mm 1 mps 475 mmHg 63%
    06:00 +4°C° 0 mm 2 mps 476 mmHg 55%
    07:00 +5°C° 0 mm 2 mps 477 mmHg 46%
    08:00 +6°C° 0 mm 2 mps 478 mmHg 37%
    09:00 +7°C° 0 mm 2 mps 479 mmHg 35%
    10:00 +8°C° 0 mm 3 mps 479 mmHg 34%
    11:00 +9°C° 0 mm 3 mps 480 mmHg 32%
    12:00 +10°C° 0 mm 3 mps 480 mmHg 31%
    13:00 +11°C° 0 mm 4 mps 481 mmHg 31%
    14:00 +11°C° 0 mm 4 mps 481 mmHg 30%
    15:00 +11°C° 0 mm 4 mps 481 mmHg 35%
    16:00 +11°C° 0 mm 4 mps 480 mmHg 40%
    17:00 +10°C° 0 mm 4 mps 480 mmHg 45%
    18:00 +8°C° 0 mm 4 mps 479 mmHg 50%
    19:00 +7°C° 0 mm 4 mps 479 mmHg 54%
    20:00 +7°C° 0 mm 3 mps 478 mmHg 59%
    21:00 +7°C° 0 mm 3 mps 478 mmHg 60%
    22:00 +5°C° 0 mm 3 mps 478 mmHg 60%
    23:00 +5°C° 0 mm 3 mps 478 mmHg 61%

    8 June, Monday

    Time Temperature Precipitation Wind Pressure Humidity
    00:00 +4°C° 0 mm 3 mps 477 mmHg 63%
    01:00 +5°C° 0 mm 2 mps 477 mmHg 64%
    02:00 +4°C° 0 mm 2 mps 476 mmHg 65%
    03:00 +4°C° 0 mm 2 mps 476 mmHg 66%
    04:00 +3°C° 0 mm 2 mps 475 mmHg 66%
    05:00 +3°C° 0 mm 2 mps 475 mmHg 66%
    06:00 +4°C° 0 mm 2 mps 476 mmHg 60%
    07:00 +5°C° 0 mm 2 mps 476 mmHg 53%
    08:00 +5°C° 0 mm 2 mps 477 mmHg 46%
    09:00 +7°C° 0 mm 2 mps 478 mmHg 43%
    10:00 +8°C° 0 mm 2 mps 479 mmHg 39%
    11:00 +9°C° 0 mm 2 mps 479 mmHg 36%
    12:00 +10°C° 0 mm 2 mps 480 mmHg 35%
    13:00 +12°C° 0 mm 2 mps 480 mmHg 34%
    14:00 +11°C° 0 mm 3 mps 481 mmHg 34%
    15:00 +11°C° 0.1 mm 3 mps 480 mmHg 39%
    16:00 +10°C° 0.1 mm 3 mps 480 mmHg 44%
    17:00 +10°C° 0.1 mm 3 mps 479 mmHg 49%
    18:00 +9°C° 0.2 mm 3 mps 479 mmHg 54%
    19:00 +8°C° 0.2 mm 3 mps 478 mmHg 59%
    20:00 +7°C° 0.2 mm 2 mps 478 mmHg 63%
    21:00 +7°C° 0.1 mm 2 mps 478 mmHg 65%
    22:00 +6°C° 0.1 mm 2 mps 478 mmHg 67%
    23:00 +6°C° 0.1 mm 2 mps 478 mmHg 69%

    9 June, Tuesday

    Time Temperature Precipitation Wind Pressure Humidity
    00:00 +6°C° 0.1 mm 1 mps 477 mmHg 71%
    01:00 +6°C° 0.1 mm 1 mps 477 mmHg 72%
    02:00 +6°C° 0.1 mm 1 mps 477 mmHg 73%
    03:00 +5°C° 0 mm 1 mps 476 mmHg 73%
    04:00 +5°C° 0 mm 1 mps 476 mmHg 74%
    05:00 +5°C° 0 mm 1 mps 476 mmHg 74%
    06:00 +6°C° 0 mm 1 mps 477 mmHg 67%
    07:00 +7°C° 0 mm 1 mps 477 mmHg 60%
    08:00 +8°C° 0 mm 1 mps 478 mmHg 53%
    09:00 +8°C° 0.1 mm 2 mps 479 mmHg 48%
    10:00 +8°C° 0.1 mm 2 mps 480 mmHg 43%
    11:00 +9°C° 0.1 mm 2 mps 480 mmHg 38%
    12:00 +10°C° 0.1 mm 3 mps 480 mmHg 38%
    13:00 +10°C° 0.1 mm 3 mps 481 mmHg 38%
    14:00 +11°C° 0.1 mm 4 mps 481 mmHg 38%
    15:00 +10°C° 0.2 mm 4 mps 480 mmHg 42%
    16:00 +10°C° 0.2 mm 4 mps 480 mmHg 46%
    17:00 +9°C° 0.2 mm 3 mps 479 mmHg 50%
    18:00 +8°C° 0.1 mm 3 mps 479 mmHg 55%
    19:00 +7°C° 0.1 mm 3 mps 478 mmHg 61%
    20:00 +5°C° 0.1 mm 3 mps 478 mmHg 66%
    21:00 +5°C° 0 mm 3 mps 478 mmHg 69%
    22:00 +4°C° 0 mm 3 mps 477 mmHg 72%
    23:00 +4°C° 0 mm 2 mps 477 mmHg 75%
    Show more